Wind_Speed
25 25 23 23 23 23 21 23 25 27 29 31 31 30 29 29 29 25 24 22 22 23 23 24 24 23 21 22 21 21 21 21 21 22 22 21 21 21 22 24 24 24 24
26 27 25 24 23 23 25 28 31 32 31 31 34 31 30 30 30 26 24 24 23 23 26 26 26 26 26 24 24 24 25 26 27 27 27 27 27 27 28 29 29 29 30
29 28 28 25 24 24 29 30 33 34 34 35 35 30 30 30 28 26 24 22 21 23 24 29 30 28 26 26 27 28 28 29 30 31 32 32 32 32 33 33 34 35 35
29 28 28 26 25 28 32 36 35 36 37 36 35 30 30 29 26 24 23 21 20 20 18 23 30 30 29 29 31 32 33 32 33 35 36 37 38 38 38 37 36 36 36
31 29 29 30 31 31 35 35 35 37 38 36 32 30 30 30 28 24 23 21 19 19 18 18 23 28 32 33 35 36 39 41 42 41 40 38 38 38 39 40 41 41 41
35 32 33 35 34 36 38 36 37 39 37 36 31 31 31 32 30 29 26 24 23 20 19 19 20 24 30 34 37 39 40 42 44 43 40 41 44 44 44 43 44 46 46
35 33 35 33 36 39 37 38 37 37 36 34 33 32 32 34 34 32 31 29 28 26 25 24 24 25 27 28 30 32 34 32 34 38 39 40 42 46 46 45 45 46 48
35 34 35 38 40 38 39 37 36 37 37 36 36 37 37 37 39 39 37 34 33 33 32 32 32 31 31 31 32 33 34 33 32 32 35 37 38 40 42 43 45 47 48
38 38 38 37 38 37 38 38 38 39 40 40 41 42 43 44 43 42 42 43 42 41 40 39 39 39 38 38 38 37 37 38 37 39 40 40 39 39 41 42 43 44 45
40 37 35 35 36 37 39 39 40 43 44 47 48 49 48 47 46 46 46 47 48 49 48 47 47 46 46 45 44 44 43 44 43 44 46 46 45 43 43 44 44 45 46
36 36 36 37 37 40 43 44 46 47 50 52 53 54 54 54 53 53 52 52 53 54 54 54 54 54 54 54 53 51 51 51 50 51 51 51 51 51 49 50 51 51 51
38 40 40 42 44 47 48 49 52 54 55 57 58 57 57 56 56 58 60 59 59 60 61 61 61 61 61 62 62 61 60 60 59 60 59 58 58 59 59 58 57 58 57
45 45 45 47 49 53 55 55 55 55 57 56 55 56 58 59 62 60 60 61 62 64 65 66 67 67 68 69 70 69 69 69 69 68 68 66 66 67 69 66 66 66 65
49 51 52 54 54 56 57 58 57 58 56 57 56 56 57 60 62 62 63 64 65 67 68 69 72 72 73 73 74 75 76 77 78 78 77 76 75 74 75 74 72 74 73
56 56 56 56 57 57 57 58 58 57 54 53 54 54 55 56 57 59 62 64 66 68 71 72 74 74 76 77 77 78 79 80 81 81 81 80 79 79 79 79 80 79 78
59 58 60 59 59 61 59 57 57 54 54 55 55 56 54 56 59 64 66 65 65 67 69 70 73 74 76 77 78 80 82 82 83 83 83 84 83 82 82 81 82 84 83
59 59 59 59 57 58 57 57 55 55 59 60 59 60 61 64 65 66 67 70 72 72 72 72 73 74 74 75 77 78 79 80 80 81 82 82 84 84 84 84 85 86 86
58 58 57 55 57 56 58 57 60 62 63 63 63 67 66 67 70 67 67 69 72 74 74 75 75 76 76 77 78 78 78 78 77 77 79 79 79 80 81 82 84 85 86
57 55 55 56 56 59 60 63 65 67 66 66 69 73 73 73 72 70 71 70 68 69 71 72 72 75 77 77 79 79 78 78 78 78 77 77 78 79 80 82 83 85 85
56 55 56 57 60 63 64 68 66 68 69 72 74 75 75 75 74 73 72 72 71 71 72 72 73 73 74 72 72 71 70 71 72 73 74 74 73 73 74 77 80 83 86
55 56 58 61 63 66 69 67 69 71 73 77 79 79 80 78 75 74 71 70 69 69 70 68 65 62 61 63 65 66 67 69 71 73 75 76 76 76 76 78 81 83 83
55 59 62 65 67 68 70 72 75 78 82 85 85 82 77 70 68 66 63 60 58 57 56 58 60 61 63 65 67 68 67 64 62 63 63 63 63 63 64 65 66 69 72
59 62 65 68 71 72 74 77 81 86 91 85 76 67 59 56 54 53 53 54 56 57 59 59 59 58 56 55 55 56 57 58 56 55 55 54 53 54 54 56 58 60 63
62 63 65 69 72 76 79 82 86 78 66 62 55 53 52 52 53 54 55 55 53 52 49 48 49 50 49 49 49 50 52 54 58 56 52 51 49 49 50 50 53 54 56
64 66 68 72 77 81 85 80 64 57 55 53 53 53 53 51 47 45 45 46 46 46 45 46 46 47 48 49 48 48 46 45 47 51 56 49 44 45 44 46 47 49 50
66 68 71 76 81 83 80 59 53 50 48 47 45 41 42 43 43 41 41 42 42 42 42 43 45 45 44 45 45 47 46 45 46 46 51 53 49 44 46 45 46 47 47
Wind_Direction
259 271 276 278 282 290 299 307 311 313 315 317 320 315 312 313 316 310 300 287 274 271 262 262 264 264 260 261 256 255 257 258 256 257 260 262 271 272 272 276 280 281 283
260 271 273 276 276 283 295 306 309 310 312 312 315 312 309 310 311 307 305 299 284 275 255 251 256 266 270 266 259 259 260 259 261 260 260 263 267 271 277 277 277 279 279
261 266 270 273 281 284 299 303 309 313 311 312 314 307 305 310 307 306 306 303 296 288 262 254 253 254 258 264 266 265 264 266 263 260 260 262 265 267 273 275 275 274 274
261 262 269 272 273 287 298 302 303 305 308 307 311 303 305 308 305 304 304 305 303 297 286 267 258 256 260 265 267 267 267 268 269 268 264 264 266 270 273 274 275 277 276
261 262 268 274 273 287 293 301 299 300 305 306 305 301 301 305 304 300 297 299 300 298 294 285 270 262 261 266 270 272 273 275 275 273 269 266 268 271 273 274 274 275 277
261 265 269 274 271 290 293 296 299 299 299 301 297 297 299 302 303 300 296 293 292 292 290 288 284 275 270 269 270 270 272 273 272 273 271 264 268 269 269 271 274 276 277
258 265 269 267 275 286 287 293 296 295 294 295 296 296 298 300 301 299 296 294 290 288 286 285 284 280 277 274 274 273 274 275 274 272 269 267 267 268 269 270 269 270 273
256 260 263 270 276 285 288 292 292 290 291 295 296 298 299 300 301 300 298 293 291 287 282 279 279 278 276 275 274 275 277 276 275 274 272 270 268 269 269 269 269 268 270
255 267 268 272 278 283 286 289 290 289 291 293 296 298 298 298 298 296 294 294 293 290 286 283 281 278 276 274 273 272 271 271 271 270 271 271 272 272 271 271 272 271 271
264 265 271 279 281 282 284 286 286 287 289 292 295 296 298 295 293 291 290 288 288 287 287 285 283 281 280 277 274 274 273 271 270 268 269 269 269 268 269 271 271 272 273
258 265 273 276 278 278 280 284 285 285 286 290 294 294 293 293 290 289 287 284 283 282 281 280 280 281 281 279 278 276 275 273 272 270 270 270 270 269 267 267 268 268 269
261 267 272 273 276 277 281 283 283 284 288 291 292 294 291 290 288 288 286 284 283 279 278 277 278 278 278 278 278 277 276 275 274 273 271 270 269 269 268 266 266 267 268
267 270 272 275 278 281 283 287 290 289 290 291 289 289 288 287 286 284 283 280 279 279 280 279 277 275 275 275 275 275 275 275 274 273 272 271 270 271 270 270 270 269 268
268 272 274 277 281 284 287 287 285 286 287 290 292 292 292 289 287 286 283 282 279 279 277 276 276 276 274 274 274 275 275 275 273 273 273 272 270 269 268 269 268 269 269
269 275 280 281 281 283 283 282 284 287 289 292 293 291 291 291 290 288 286 283 281 280 279 278 277 276 276 274 274 274 273 273 274 274 274 273 272 271 270 270 271 270 271
273 277 278 279 279 280 282 284 287 289 289 288 288 289 291 292 296 295 289 285 282 281 280 279 278 278 278 278 277 276 275 275 275 275 276 276 276 276 276 275 273 272 273
272 274 274 277 279 280 284 287 287 287 288 287 287 290 292 298 298 300 295 291 288 286 285 285 284 284 284 283 283 282 281 280 279 277 276 275 276 275 275 274 273 271 270
271 274 275 277 279 281 284 285 285 286 289 288 289 296 299 298 299 297 295 293 290 288 288 287 288 287 286 286 286 284 283 282 280 279 277 275 275 275 274 273 272 270 270
271 273 275 278 280 284 284 285 287 289 290 292 293 298 297 297 296 294 291 289 288 287 286 285 284 284 284 284 284 283 282 280 280 279 277 275 273 271 270 270 269 268 267
274 276 278 279 281 285 286 288 289 292 295 297 297 296 295 294 292 292 290 288 287 285 283 283 284 285 286 284 282 282 282 281 281 279 278 277 276 274 273 271 270 269 268
275 278 279 280 285 286 288 291 294 297 299 296 295 294 293 292 291 290 288 288 288 288 287 288 287 285 286 286 285 283 283 282 281 279 279 278 277 275 273 271 270 269 268
278 278 278 282 285 289 291 295 299 299 297 296 293 292 291 291 291 292 291 292 292 291 291 289 288 286 285 285 284 284 282 281 281 281 281 281 279 277 275 273 273 272 271
278 279 280 283 285 291 295 297 297 296 295 294 292 293 292 291 291 293 292 291 290 289 289 289 289 288 287 287 288 289 289 288 286 287 286 287 284 279 276 274 274 274 274
279 283 286 287 293 295 296 298 298 298 295 295 294 293 294 295 295 295 294 293 292 292 292 292 291 291 290 291 292 293 295 295 295 293 289 289 289 287 282 276 275 275 275
285 287 290 293 295 296 299 301 297 295 295 296 297 298 299 300 299 299 299 298 295 294 293 292 293 293 295 296 296 297 297 298 302 304 297 288 285 287 284 281 278 276 276
284 288 291 293 297 301 301 299 298 298 295 295 299 303 303 303 303 303 301 300 298 300 301 300 302 305 307 306 305 307 303 301 301 300 303 301 295 287 289 283 279 276 274
Height
10892 10893 10893 10893 10893 10893 10893 10892 10892 10891 10890 10889 10887 10885 10883 10880 10877 10875 10872 10871 10870 10870 10870 10870 10870 10871 10872 10872 10872 10872 10871 10871 10871 10870 10870 10870 10870 10869 10868 10867 10867 10866 10864
10889 10889 10890 10890 10890 10890 10890 10889 10888 10887 10886 10885 10883 10881 10879 10877 10874 10872 10870 10867 10866 10865 10865 10865 10865 10866 10867 10867 10868 10868 10868 10867 10867 10866 10866 10865 10865 10864 10864 10863 10863 10862 10861
10884 10885 10885 10886 10886 10886 10886 10885 10884 10883 10882 10880 10879 10877 10875 10873 10871 10869 10866 10864 10862 10861 10860 10860 10860 10861 10861 10862 10862 10863 10863 10863 10862 10862 10861 10860 10859 10859 10859 10859 10858 10857 10856
10879 10881 10881 10882 10882 10882 10881 10881 10880 10878 10877 10875 10874 10872 10871 10869 10867 10865 10863 10861 10859 10857 10856 10856 10856 10856 10857 10857 10857 10857 10857 10857 10856 10856 10856 10855 10854 10853 10853 10852 10852 10851 10851
10875 10876 10877 10877 10877 10877 10877 10876 10875 10873 10872 10870 10869 10867 10866 10865 10863 10862 10860 10858 10856 10853 10852 10851 10852 10852 10852 10852 10852 10851 10851 10850 10849 10849 10849 10848 10847 10846 10846 10845 10845 10844 10843
10870 10871 10872 10872 10872 10872 10871 10870 10869 10868 10867 10865 10864 10863 10861 10860 10859 10857 10856 10855 10853 10851 10850 10849 10848 10847 10847 10846 10846 10845 10844 10842 10840 10840 10840 10841 10840 10839 10838 10837 10837 10836 10836
10865 10866 10867 10867 10867 10867 10866 10865 10864 10862 10861 10860 10859 10857 10856 10855 10854 10852 10851 10850 10849 10847 10846 10844 10843 10842 10841 10839 10838 10837 10836 10834 10832 10831 10831 10832 10832 10831 10829 10829 10829 10828 10827
10860 10861 10861 10862 10862 10862 10860 10859 10858 10856 10856 10855 10853 10852 10851 10849 10848 10847 10846 10844 10843 10842 10840 10838 10837 10836 10835 10833 10832 10830 10829 10827 10826 10824 10822 10823 10823 10822 10821 10820 10820 10819 10819
10855 10856 10856 10857 10857 10856 10855 10853 10852 10851 10850 10849 10848 10847 10846 10844 10841 10840 10839 10837 10835 10834 10833 10831 10830 10829 10827 10826 10824 10824 10822 10820 10819 10817 10815 10814 10815 10814 10812 10812 10811 10811 10810
10849 10850 10850 10851 10851 10850 10849 10848 10846 10845 10843 10842 10841 10840 10839 10837 10835 10833 10831 10829 10827 10825 10823 10822 10820 10819 10817 10816 10815 10814 10813 10811 10811 10809 10806 10806 10805 10805 10805 10803 10803 10802 10802
10842 10844 10844 10843 10843 10843 10842 10841 10839 10837 10835 10834 10833 10831 10829 10828 10825 10823 10822 10819 10817 10816 10814 10811 10810 10808 10806 10805 10803 10803 10802 10800 10799 10798 10797 10796 10795 10794 10795 10794 10792 10792 10791
10835 10836 10836 10836 10836 10836 10835 10834 10832 10830 10828 10826 10824 10821 10819 10818 10816 10813 10811 10808 10806 10804 10802 10800 10798 10796 10794 10792 10791 10790 10788 10787 10786 10784 10784 10784 10783 10781 10779 10781 10780 10780 10780
10827 10827 10828 10829 10829 10828 10827 10826 10824 10822 10820 10817 10813 10811 10808 10806 10803 10801 10799 10796 10793 10791 10788 10786 10784 10783 10780 10778 10775 10774 10774 10772 10771 10769 10768 10769 10769 10768 10765 10767 10767 10767 10767
10819 10820 10821 10821 10822 10820 10818 10816 10814 10812 10810 10807 10803 10800 10796 10793 10789 10787 10785 10782 10780 10777 10774 10770 10767 10766 10764 10763 10761 10759 10757 10755 10753 10753 10752 10753 10753 10754 10751 10751 10752 10751 10754
10811 10813 10814 10813 10813 10810 10807 10805 10802 10801 10799 10796 10793 10789 10785 10781 10778 10774 10771 10768 10766 10762 10758 10755 10752 10748 10747 10746 10744 10742 10740 10738 10736 10735 10733 10733 10735 10736 10737 10736 10735 10735 10737
10805 10806 10805 10805 10803 10800 10797 10795 10792 10790 10787 10784 10781 10778 10774 10769 10766 10762 10758 10755 10752 10748 10744 10740 10737 10735 10731 10728 10725 10724 10722 10721 10720 10718 10717 10716 10716 10717 10718 10718 10719 10717 10718
10798 10797 10795 10794 10792 10790 10787 10785 10782 10779 10776 10773 10769 10765 10762 10757 10753 10748 10743 10739 10735 10732 10729 10728 10723 10720 10716 10712 10709 10706 10705 10704 10702 10700 10699 10697 10696 10696 10696 10697 10697 10697 10698
10788 10788 10786 10784 10782 10780 10778 10774 10771 10768 10764 10761 10757 10753 10748 10744 10739 10735 10729 10724 10719 10715 10711 10708 10706 10702 10698 10694 10690 10686 10683 10681 10679 10678 10677 10677 10677 10675 10675 10673 10672 10673 10675
10779 10778 10777 10774 10772 10770 10767 10764 10761 10757 10753 10749 10744 10738 10733 10728 10723 10718 10712 10708 10704 10700 10695 10691 10688 10684 10679 10676 10671 10667 10664 10660 10657 10655 10653 10652 10652 10652 10651 10648 10648 10649 10651
10770 10769 10768 10764 10762 10760 10756 10752 10749 10745 10740 10734 10728 10721 10715 10710 10705 10701 10695 10690 10685 10681 10676 10673 10671 10669 10662 10657 10652 10648 10646 10642 10639 10634 10631 10629 10630 10630 10630 10627 10625 10625 10624
10761 10761 10758 10754 10752 10748 10743 10740 10736 10731 10724 10717 10711 10704 10698 10691 10687 10681 10676 10672 10668 10664 10660 10656 10653 10648 10645 10639 10633 10631 10628 10624 10621 10616 10613 10609 10610 10610 10609 10608 10604 10603 10602
10753 10752 10748 10744 10740 10736 10731 10727 10722 10715 10707 10699 10692 10686 10680 10674 10669 10665 10661 10657 10653 10648 10644 10639 10636 10633 10629 10624 10617 10613 10611 10609 10603 10599 10595 10593 10590 10588 10587 10586 10584 10582 10580
10744 10741 10738 10734 10728 10723 10719 10713 10707 10698 10689 10680 10675 10670 10663 10659 10655 10650 10647 10643 10639 10635 10630 10625 10621 10617 10614 10611 10606 10599 10594 10590 10590 10586 10582 10578 10575 10572 10570 10568 10567 10564 10562
10733 10730 10727 10721 10716 10710 10704 10699 10691 10679 10671 10665 10660 10655 10650 10646 10642 10638 10634 10630 10626 10622 10618 10613 10610 10606 10603 10599 10596 10591 10584 10577 10571 10570 10572 10567 10564 10559 10556 10552 10549 10548 10546
10720 10717 10713 10707 10702 10695 10687 10680 10671 10664 10658 10653 10648 10642 10638 10634 10631 10627 10623 10620 10617 10613 10609 10605 10601 10597 10593 10588 10584 10580 10577 10571 10563 10552 10546 10554 10553 10547 10543 10540 10536 10532 10530
10708 10704 10700 10694 10688 10680 10671 10664 10658 10651 10646 10641 10636 10632 10627 10624 10621 10618 10615 10612 10608 10604 10600 10597 10593 10588 10584 10580 10575 10570 10564 10561 10556 10550 10537 10531 10531 10535 10530 10528 10525 10521 10518